#timestamp,LO_Frequency,Hit,StdDev 
1512838815.7,286047008.2,N
1512838835.6,286047012.0,N
1512838855.4,286047011.2,N
1512838875.2,286047011.7,N
1512838895.0,286047013.2,N
1512838895.9,286047013.2,N
1512838915.8,286047018.6,Y
1512838935.6,286047010.3,P
1512838955.4,286047007.6,N
1512838975.3,286047001.7,N
1512838995.1,286047002.4,N
1512839015.8,286047004.7,N
1512839035.7,286047005.3,N
1512839055.5,286047007.4,N
1512839075.3,286047005.3,N
1512839095.2,286047007.1,N
1512839115.9,286047009.1,Y
1512839135.7,286047000.7,P
1512839155.6,286046996.9,N
1512839175.4,286047000.5,N
1512839195.2,286047001.4,N
1512839215.1,286047002.0,N
1512839216.0,286047002.0,N
1512839235.8,286047000.5,N
1512839255.6,286047003.9,N
1512839275.5,286047001.9,N
1512839295.3,286047006.0,N
1512839315.1,286047007.2,N
1512839335.9,286047003.2,N
1512839355.7,286047001.8,N
1512839375.5,286047001.0,N
1512839395.3,286046997.8,N
1512839415.2,286046996.4,N
1512839435.0,286046999.0,N
1512839435.9,286046999.0,N
1512839455.7,286047001.2,N
1512839475.6,286046998.2,N
1512839495.4,286047000.5,N
1512839515.2,286046999.9,N
1512839535.1,286047000.3,N
1512839536.0,286047000.3,N
1512839555.8,286046998.2,N
1512839575.6,286046998.5,N
1512839595.5,286047001.6,N
1512839615.3,286046998.3,N
1512839635.1,286046993.3,N
1512839655.9,286046988.5,Y
1512839675.7,286046983.8,P
1512839695.5,286046983.3,N
1512839715.3,286046977.4,N
1512839735.2,286046978.5,N
1512839755.0,286046977.0,N
1512839755.9,286046977.0,N
1512839775.8,286046975.8,Y
1512839795.6,286046994.1,P
1512839815.4,286046990.6,N
1512839835.2,286046984.2,P
1512839855.1,286046984.9,Y
1512839856.0,286046984.9,P
1512839875.8,286046994.5,P
1512839895.6,286046995.7,N
1512839915.5,286046996.0,N
1512839935.3,286046995.6,N
1512839955.1,286046997.3,N
1512839975.9,286046995.0,N
1512839995.7,286046997.2,N
1512840015.5,286046994.2,N
1512840035.4,286046995.1,N
1512840055.2,286046995.9,N
1512840075.0,286046994.9,N
1512840075.9,286046994.9,N
1512840095.8,286046994.1,N
1512840115.6,286046994.8,N
1512840135.4,286046993.6,N
1512840155.2,286046993.5,N
1512840175.1,286046995.4,N
1512840176.0,286046995.4,N
1512840195.8,286046996.7,N
1512840215.6,286047001.9,N
1512840235.5,286047001.3,N
1512840255.3,286047006.0,N
1512840275.1,286047005.1,N
1512840295.9,286047005.5,N
1512840315.7,286047007.4,N
1512840335.5,286047006.6,N
1512840355.4,286047010.7,N
1512840375.2,286047008.4,N
1512840395.0,286047011.6,N
1512840395.9,286047011.6,N
1512840415.8,286047010.9,N
1512840435.6,286047010.2,N
1512840455.4,286047011.4,N
1512840475.3,286047012.4,N
1512840495.1,286047009.1,N
1512840496.0,286047009.1,N
1512840515.8,286047005.7,N
1512840535.6,286047005.3,N
1512840555.5,286047003.3,N
1512840575.3,286047003.7,N
1512840595.1,286047003.6,N
1512840615.9,286047003.1,N
1512840635.7,286047003.5,N
1512840655.5,286047007.5,N
1512840675.4,286047001.4,N
1512840695.2,286047004.1,N
1512840715.0,286047002.3,N
1512840715.9,286047002.3,N
1512840735.8,286047005.8,N
1512840755.6,286047007.3,N
1512840775.4,286047007.5,N
1512840795.3,286047005.4,N
1512840815.1,286047001.3,N
1512840816.0,286047001.3,N
1512840835.8,286047001.5,N
1512840855.7,286047000.1,N
1512840875.5,286046998.2,N
1512840895.3,286046999.4,N
1512840915.1,286046998.3,N
1512840935.9,286047003.3,N
1512840955.7,286047004.1,N
1512840975.5,286047007.5,N
1512840995.4,286047003.2,N
1512841015.2,286047005.3,N
1512841035.0,286047005.6,N
1512841035.9,286047005.6,N
1512841055.8,286047006.5,N
1512841075.6,286047010.6,Y
1512841095.4,286047005.1,P
1512841115.3,286047006.4,P
1512841135.1,286047007.0,P
1512841136.0,286047007.0,Y
1512841155.8,286047001.6,P
1512841175.7,286047002.0,N
1512841195.5,286047001.3,N
1512841215.3,286047003.3,N
1512841235.2,286047005.5,Y
1512841255.9,286047001.6,P
1512841275.7,286047001.8,P
1512841295.6,286047000.4,N
1512841315.4,286046998.9,N
1512841335.2,286046998.8,N
1512841355.1,286047002.0,N
1512841356.0,286047002.0,N
1512841375.8,286046995.0,Y
1512841395.6,286046993.4,P
1512841415.5,286046993.9,N
1512841435.3,286046995.9,N
1512841455.1,286046995.9,N
1512841475.9,286046994.1,N
1512841495.7,286046992.7,N
1512841515.5,286046991.3,Y
1512841535.4,286046998.0,P
1512841555.2,286046999.6,N
1512841575.0,286046998.2,N
1512841575.9,286046998.2,N
1512841595.8,286046999.7,N
1512841615.6,286047002.8,N
1512841635.4,286046996.6,N
1512841655.2,286046996.9,N
1512841675.1,286047001.1,N
1512841676.0,286047001.1,N
1512841695.8,286046999.9,N
1512841715.6,286046999.0,N
1512841735.5,286046996.8,N
1512841755.3,286046993.4,Y
1512841775.1,286046996.3,P
1512841795.9,286046996.1,P
1512841815.7,286046996.2,P
1512841835.5,286046997.4,N
1512841855.4,286046993.5,Y
1512841875.2,286047001.9,P
1512841895.0,286047006.7,N
1512841895.9,286047006.7,N
1512841915.8,286047006.0,N
1512841935.6,286047007.6,N
1512841955.4,286047006.7,N
1512841975.3,286047007.3,N
1512841995.1,286047006.2,N
1512841996.0,286047006.2,N
1512842015.8,286047010.5,Y
1512842035.7,286047001.4,P
1512842055.5,286047006.0,P
1512842075.3,286047005.9,N
1512842095.2,286047004.6,N
1512842115.9,286047005.4,Y
1512842135.7,286046998.2,P
1512842155.6,286046999.3,N
1512842175.4,286047001.2,N
1512842195.2,286046994.9,N
1512842215.0,286046997.1,N
1512842216.0,286046997.1,N
1512842235.8,286046996.7,N
1512842255.6,286046998.4,N
1512842275.4,286046997.7,N
1512842295.3,286046996.0,N
1512842315.1,286046994.9,N
1512842335.8,286046996.5,N
1512842355.7,286047001.0,N
1512842375.5,286046997.0,N
1512842395.3,286046999.1,N
